THOR ABLESTAR DEB, 1942

Orbit data source: Space-Track

THOR ABLESTAR DEB, 1942 is space debris in LEO originally from a launch on Thu, 29 Jun 1961 UTC launched from the Air Force Eastern Test Range (AFETR). Debris objects in space refer to the collection of defunct objects orbiting the Earth. Examples of debris include non-operational satellites, rocket bodies, and fragments generated from explosions, collisions, or faulty payload assembly.

Loading next visibility...
Identifier
1942, 1961-015HS
Orbit
LEO
Country
Flag of USUS
Related business
Manufacturer
Unknown
Mission
Spacecraft
Bus & Motor
Unknown
Mass
Unknown
Launch date (UTC)
1961-06-29 (65 years ago)
Launch vehicle
Unknown
Launch site
Air Force Eastern Test Range (AFETR)
Object type
Payload
Rocket body
Debris
Shape & HBR
Unknown shape, 0.1 m
Radar Cross Section
Small (<0.1 m²)

Expand to show TLE details & history
Last TLE update: 1 day ago

TLE from 1 day ago
0 THOR ABLESTAR DEB
1 01942U 61015HS  26033.65837243  .00000744  00000-0  16437-2 0  9999
2 01942  67.2698 282.6554 0341970 342.2921  41.4974 13.13305031 99158
Epoch: 2026-02-02T15:48Z
TLE epoch observation values (Epoch: 2026-02-02T15:48:03.377Z)
Latitude
24.31541°
Longitude
-76.35528°
Altitude
1,022.154 km
Speed
7.435 km/s
True Right ascension
19h 34m 02s
True Declination
24° 11' 28"
Sunlit
Object was in daylight at epoch
Visualization orbit readout
Latitude
Unknown
Longitude
Unknown
Altitude
Unknown
Speed
Unknown
Apparent Right ascension
Unknown
Apparent Declination
Unknown
Sunlit
N/A
Visualization observer readout
Local Sidereal Time
18:04:26
Azimuth
Unknown
Elevation
Unknown
Doppler factor
Unknown
Orbital elements
Apogee altitude
1,468.251 km
Perigee altitude
949.35 km
Semi-major axis
7,586.938 km
Eccentricity
0.0342
Inclination
67.2698°
RAAN
282.6554°
Arg. of periapsis
342.2921°
True anomaly
44.17865°
Mean anomaly
41.4974°
Eccentric anomaly
42.8294°
Mean motion
3.2843 °/min
Orbital period
109.61 mins
BSTAR
0.0016437
Loading maneuver chart data...
Computing Atmospheric mass density...

Documentation

Showing up to 5 results
|